[[{"header":{"parameterUnit":"m.s-1","parameterCategory":1,"la1":30.2991,"la2":30.254,"lo1":-89.0895,"lo2":-89.0444,"dy":0.0017,"dx":0.0017,"nx":28,"ny":28,"refTime":"2023-08-22T03:00:00:Z","depth":0,"parameterNumber":2,"parameterNumberName":"U-component_of_WINDS"},"data":[0,0,0,0,0,0,0,0,0,0,0,0,0,0,0,0,0,0,0,0,0,0,0,0,0,0,0,0,0,0,0,0,0,0,0,0,0,0,0,0,0,0,0,0,0,0,0,0,0,0,0,0,0,0,0,0,0,0,3.3343,3.3345,0,3.3455,3.3457,3.3458,3.3433,3.3431,3.3429,3.3427,3.3543,3.3548,3.3553,0,0,0,0,0,0,0,0,0,0,0,0,0,3.311,3.3114,3.3343,3.3345,3.3346,3.3455,3.3457,3.3458,3.3433,3.3431,3.3428,3.3426,3.3541,3.3547,3.3553,0,0,0,0,0,0,0,0,0,0,0,0,0,3.3216,3.3116,3.3343,3.3347,3.3348,3.3455,3.3457,3.3459,3.3434,3.3431,3.3428,3.3425,3.3539,3.3547,3.3554,3.3664,0,0,3.3577,3.3581,0,0,0,0,0,0,0,0,3.321,3.3224,3.3345,3.3347,3.3349,3.3427,3.3417,3.3528,3.3435,3.3401,3.3427,3.3423,3.3507,3.3517,3.3545,3.367,3.3675,3.3578,3.3583,3.3586,3.3588,0,0,0,0,0,0,0,3.3202,3.3219,3.3388,3.3347,3.3349,3.3344,3.3355,3.3438,3.3471,3.3404,3.3403,3.3416,3.3507,3.3538,3.3548,3.3676,3.3578,3.3584,3.3589,3.3592,3.3898,3.3902,0,0,0,0,0,0,3.3193,3.3213,3.3384,3.3391,3.327,3.335,3.3363,3.3405,3.347,3.3476,3.3419,3.3415,3.3526,3.3539,3.3552,3.3685,3.3586,3.3593,3.3597,3.3895,3.3899,3.3903,0,0,0,0,0,0,3.3188,3.3209,3.338,3.3302,3.3323,3.3358,3.3405,3.3409,3.3439,3.3481,3.3487,3.3444,3.3524,3.3541,3.3637,3.3689,3.3596,3.3603,3.3891,3.3896,3.3901,3.3953,0,0,0,0,0,0,3.3182,3.3207,3.3249,3.3303,3.3327,3.3462,3.3408,3.3413,3.3452,3.3448,3.3505,3.3512,3.3523,3.3625,3.3644,3.3698,3.3609,3.3886,3.3893,3.3899,3.3947,3.3959,3.397,0,0,0,0,0,3.3174,3.3259,3.3251,3.3272,3.338,3.3465,3.3479,3.349,3.3456,3.3499,3.3526,3.351,3.368,3.3635,3.3656,3.3713,3.3883,3.3891,3.3899,3.3941,3.3957,3.397,0,0,0,0,0,0,3.321,3.3266,3.3258,3.3363,3.341,3.3461,3.3514,3.3506,3.3563,3.3556,3.3568,3.3581,3.3679,3.3705,3.3654,3.3823,3.3777,3.3789,3.3802,3.3817,3.3829,3.382,3.3615,0,0,0,0,0,3.323,3.3294,3.334,3.3429,3.3452,3.348,3.3517,3.3521,3.357,3.359,3.3623,3.3672,3.3736,3.3778,3.384,3.3951,3.3963,3.4,3.4012,3.4021,3.4032,3.4094,3.4111,3.3929,3.3929,3.3929,0,0,3.3273,3.3311,3.3351,3.3437,3.3473,3.354,3.3496,3.3568,3.3618,3.3601,3.3693,3.372,3.3775,3.3879,3.3926,3.3904,3.4085,3.4032,3.4039,3.4045,3.4104,3.4121,3.4136,3.3935,3.3934,3.3933,0,0,3.3384,3.342,3.3498,3.3535,3.3591,3.3609,3.3628,3.3681,3.3698,3.3791,3.3779,3.3839,3.395,3.3989,3.4024,3.4152,3.414,3.4172,3.4234,3.4294,3.4308,3.4321,3.4367,3.4383,3.4183,3.4183,3.4183,0,3.343,3.3529,3.3539,3.3613,3.3651,3.3639,3.3718,3.3754,3.3828,3.3855,3.3829,3.3968,3.4004,3.4117,3.4149,3.4177,3.42,3.4165,3.4305,3.4318,3.433,3.4374,3.4391,3.4186,3.4186,3.4186,3.4185,0,3.3583,3.3653,3.3709,3.378,3.3825,3.3901,3.3923,3.3968,3.3968,3.3989,3.4085,3.4128,3.4198,3.4225,3.4227,3.434,3.4324,3.4302,3.4255,3.435,3.4392,3.4409,3.4191,3.419,3.4189,3.4188,0,0,3.372,3.3796,3.3816,3.3849,3.391,3.3964,3.404,3.4109,3.4147,3.4198,3.4263,3.4358,3.4337,3.4377,3.4383,3.4436,3.4535,3.4407,3.4408,3.4429,3.4663,3.4679,3.4698,3.4528,3.4531,3.4534,3.4658,0,3.3837,3.397,3.3982,3.4102,3.4167,3.4157,3.4223,3.4268,3.429,3.4349,3.4373,3.444,3.4408,3.4432,3.4484,3.4512,3.4582,3.4503,3.4589,3.4591,3.4574,3.472,3.4737,3.4852,3.4674,3.4677,3.4679,0,3.3991,3.4047,3.4173,3.4226,3.4254,3.4313,3.4378,3.4433,3.4485,3.4498,3.4542,3.4542,3.4621,3.4572,3.4682,3.4628,3.4664,3.4684,3.4688,3.4696,3.4641,3.4732,3.4889,3.4906,3.4705,3.4703,3.4701,0,3.4078,3.4185,3.4275,3.4303,3.4367,3.4409,3.4438,3.4486,3.4527,3.4584,3.461,3.4676,3.4711,3.4763,3.478,3.4743,3.489,3.4842,3.4903,3.4902,3.4933,3.4931,3.5099,3.4957,3.4957,3.4957,3.4956,0,3.4207,3.4285,3.4315,3.437,3.4457,3.447,3.4557,3.4583,3.4627,3.4688,3.4683,3.4741,3.4761,3.4822,3.4836,3.4925,3.4942,3.4954,3.4957,3.4955,3.4953,3.4978,3.497,3.4961,3.496,3.496,3.4959,0,3.4319,3.4342,3.4439,3.4492,3.4507,3.4569,3.4615,3.4668,3.469,3.4767,3.4786,3.482,3.4892,3.4914,3.5001,3.5011,3.5115,3.5111,3.5097,3.5098,3.5157,3.5151,3.5346,3.5372,3.5214,3.5216,3.5217,0,3.4399,3.4459,3.4519,3.4559,3.4589,3.4654,3.4696,3.4712,3.4755,3.4819,3.4866,3.4936,3.4994,3.5109,3.5142,3.5209,3.5206,3.527,3.5216,3.5212,3.5207,3.5203,3.521,3.528,3.5282,3.5283,3.5284,0,3.4541,3.4549,3.4609,3.4673,3.4723,3.4774,3.4824,3.4858,3.4881,3.493,3.5003,3.5048,3.5137,3.5208,3.5276,3.5306,3.53,3.5301,3.5319,3.5316,3.5306,3.5312,3.5125,3.5296,3.5295,3.5294,3.5293,3.5293,3.4639,3.4692,3.4742,3.4809,3.4848,3.4895,3.4948,3.4976,3.5037,3.511,3.5116,3.5196,3.5247,3.5338,3.5372,3.5435,3.5416,3.5442,3.5448,3.5454,3.5459,3.5296,3.5447,3.5447,3.5447,3.5446,3.5446,0,3.478,3.4812,3.4873,3.4943,3.4996,3.4985,3.504,3.5085,3.5154,3.5203,3.5259,3.5344,3.5413,3.5452,3.5521,3.5564,3.5563,3.5581,3.5578,3.5586,3.5471,3.5449,3.5581,3.5581,3.5581,3.5581,3.5581,3.5581,3.4859,3.4948,3.4963,3.5071,3.5103,3.518,3.5212,3.5256,3.5294,3.5389,3.5446,3.547,3.5515,3.5588,3.5651,3.5661,3.5686,3.5707,3.5715,3.5607,3.5593,3.558,3.5559,3.5713,3.5713,3.5824,3.5825,3.5826]},{"header":{"parameterUnit":"m.s-1","parameterCategory":1,"la1":30.2991,"la2":30.254,"lo1":-89.0895,"lo2":-89.0444,"dy":0.0017,"dx":0.0017,"nx":28,"ny":28,"refTime":"2023-08-22T03:00:00:Z","depth":0,"parameterNumber":3,"parameterNumberName":"V-component_of_WINDS"},"data":[0,0,0,0,0,0,0,0,0,0,0,0,0,0,0,0,0,0,0,0,0,0,0,0,0,0,0,0,0,0,0,0,0,0,0,0,0,0,0,0,0,0,0,0,0,0,0,0,0,0,0,0,0,0,0,0,0,0,-0.3454,-0.3454,0,-0.3446,-0.3445,-0.3445,-0.3447,-0.3447,-0.3447,-0.3447,-0.3438,-0.3437,-0.3437,0,0,0,0,0,0,0,0,0,0,0,0,0,-0.347,-0.347,-0.3454,-0.3454,-0.3454,-0.3446,-0.3445,-0.3445,-0.3447,-0.3447,-0.3447,-0.3447,-0.3438,-0.3437,-0.3437,0,0,0,0,0,0,0,0,0,0,0,0,0,-0.3463,-0.347,-0.3454,-0.3454,-0.3453,-0.3446,-0.3445,-0.3445,-0.3447,-0.3447,-0.3447,-0.3448,-0.3438,-0.3437,-0.3437,-0.3429,0,0,-0.3435,-0.3435,0,0,0,0,0,0,0,0,-0.3463,-0.3462,-0.3454,-0.3454,-0.3453,-0.3448,-0.3448,-0.344,-0.3447,-0.3449,-0.3447,-0.3448,-0.3441,-0.344,-0.3438,-0.3428,-0.3428,-0.3435,-0.3435,-0.3434,-0.3434,0,0,0,0,0,0,0,-0.3464,-0.3463,-0.3451,-0.3454,-0.3453,-0.3454,-0.3453,-0.3446,-0.3444,-0.3449,-0.3449,-0.3448,-0.3441,-0.3438,-0.3438,-0.3428,-0.3435,-0.3434,-0.3434,-0.3434,-0.3411,-0.3411,0,0,0,0,0,0,-0.3465,-0.3463,-0.3451,-0.345,-0.3459,-0.3453,-0.3452,-0.3449,-0.3444,-0.3443,-0.3448,-0.3448,-0.3439,-0.3438,-0.3437,-0.3427,-0.3434,-0.3434,-0.3433,-0.3411,-0.3411,-0.341,0,0,0,0,0,0,-0.3465,-0.3463,-0.3451,-0.3457,-0.3455,-0.3453,-0.3449,-0.3449,-0.3447,-0.3443,-0.3443,-0.3446,-0.3439,-0.3438,-0.3431,-0.3427,-0.3433,-0.3433,-0.3411,-0.3411,-0.3411,-0.3407,0,0,0,0,0,0,-0.3465,-0.3464,-0.3461,-0.3457,-0.3455,-0.3445,-0.3449,-0.3449,-0.3446,-0.3446,-0.3441,-0.3441,-0.344,-0.3432,-0.343,-0.3426,-0.3432,-0.3412,-0.3411,-0.3411,-0.3408,-0.3407,-0.3406,0,0,0,0,0,-0.3466,-0.346,-0.346,-0.3459,-0.3451,-0.3445,-0.3444,-0.3443,-0.3445,-0.3442,-0.344,-0.3441,-0.3428,-0.3431,-0.3429,-0.3425,-0.3412,-0.3411,-0.3411,-0.3408,-0.3407,-0.3406,0,0,0,0,0,0,-0.3463,-0.3459,-0.346,-0.3452,-0.3449,-0.3445,-0.3441,-0.3442,-0.3437,-0.3438,-0.3437,-0.3436,-0.3428,-0.3426,-0.343,-0.3417,-0.342,-0.3419,-0.3419,-0.3418,-0.3417,-0.3417,-0.3432,0,0,0,0,0,-0.3461,-0.3457,-0.3454,-0.3447,-0.3446,-0.3444,-0.3441,-0.3441,-0.3437,-0.3435,-0.3433,-0.3429,-0.3424,-0.3421,-0.3416,-0.3407,-0.3406,-0.3404,-0.3403,-0.3402,-0.3401,-0.3397,-0.3396,-0.3409,-0.3409,-0.3409,0,0,-0.3458,-0.3455,-0.3452,-0.3446,-0.3444,-0.3439,-0.3442,-0.3437,-0.3433,-0.3435,-0.3428,-0.3426,-0.3421,-0.3413,-0.341,-0.3411,-0.3398,-0.3402,-0.3401,-0.34,-0.3396,-0.3395,-0.3394,-0.3408,-0.3408,-0.3408,0,0,-0.3449,-0.3447,-0.3441,-0.3439,-0.3435,-0.3434,-0.3432,-0.3429,-0.3427,-0.3421,-0.3421,-0.3417,-0.3408,-0.3405,-0.3403,-0.3393,-0.3394,-0.3392,-0.3387,-0.3383,-0.3382,-0.3381,-0.3378,-0.3376,-0.3391,-0.3391,-0.3391,0,-0.3445,-0.3438,-0.3438,-0.3433,-0.343,-0.3431,-0.3426,-0.3423,-0.3418,-0.3416,-0.3418,-0.3407,-0.3405,-0.3396,-0.3394,-0.3392,-0.339,-0.3392,-0.3382,-0.3381,-0.338,-0.3377,-0.3376,-0.3391,-0.3391,-0.3391,-0.3391,0,-0.3433,-0.3429,-0.3425,-0.342,-0.3417,-0.3411,-0.341,-0.3407,-0.3407,-0.3406,-0.3399,-0.3396,-0.339,-0.3388,-0.3388,-0.338,-0.3381,-0.3383,-0.3386,-0.3379,-0.3376,-0.3374,-0.3391,-0.3391,-0.3391,-0.3391,0,0,-0.3422,-0.3418,-0.3416,-0.3414,-0.341,-0.3406,-0.3401,-0.3396,-0.3394,-0.339,-0.3385,-0.3378,-0.338,-0.3377,-0.3377,-0.3373,-0.3366,-0.3375,-0.3375,-0.3373,-0.3356,-0.3355,-0.3353,-0.3366,-0.3366,-0.3366,-0.3356,0,-0.3413,-0.3403,-0.3403,-0.3395,-0.339,-0.3392,-0.3387,-0.3384,-0.3383,-0.3379,-0.3377,-0.3372,-0.3375,-0.3373,-0.3369,-0.3367,-0.3362,-0.3368,-0.3361,-0.3361,-0.3362,-0.3352,-0.335,-0.3341,-0.3355,-0.3355,-0.3355,0,-0.34,-0.3397,-0.3388,-0.3385,-0.3383,-0.3379,-0.3375,-0.3371,-0.3368,-0.3367,-0.3364,-0.3364,-0.3359,-0.3362,-0.3354,-0.3358,-0.3356,-0.3354,-0.3354,-0.3353,-0.3357,-0.335,-0.3338,-0.3337,-0.3353,-0.3353,-0.3353,0,-0.3393,-0.3386,-0.338,-0.3378,-0.3374,-0.3371,-0.337,-0.3367,-0.3364,-0.336,-0.3358,-0.3354,-0.3351,-0.3348,-0.3347,-0.335,-0.3339,-0.3343,-0.3338,-0.3338,-0.3335,-0.3335,-0.3323,-0.3334,-0.3334,-0.3334,-0.3334,0,-0.3382,-0.3377,-0.3376,-0.3372,-0.3366,-0.3366,-0.336,-0.3358,-0.3356,-0.3351,-0.3352,-0.3348,-0.3348,-0.3343,-0.3343,-0.3336,-0.3335,-0.3334,-0.3334,-0.3334,-0.3334,-0.3332,-0.3332,-0.3334,-0.3334,-0.3334,-0.3334,0,-0.3372,-0.3372,-0.3365,-0.3363,-0.3362,-0.3357,-0.3355,-0.3351,-0.335,-0.3345,-0.3344,-0.3342,-0.3337,-0.3336,-0.333,-0.3329,-0.3322,-0.3322,-0.3323,-0.3323,-0.3318,-0.3318,-0.3303,-0.3301,-0.3314,-0.3314,-0.3314,0,-0.3365,-0.3361,-0.3358,-0.3356,-0.3354,-0.335,-0.3347,-0.3347,-0.3344,-0.3341,-0.3337,-0.3332,-0.3329,-0.3321,-0.3319,-0.3314,-0.3314,-0.3309,-0.3314,-0.3314,-0.3314,-0.3314,-0.3314,-0.3308,-0.3308,-0.3308,-0.3308,0,-0.3353,-0.3353,-0.335,-0.3346,-0.3343,-0.334,-0.3337,-0.3335,-0.3334,-0.3331,-0.3326,-0.3323,-0.3317,-0.3312,-0.3308,-0.3306,-0.3307,-0.3307,-0.3306,-0.3305,-0.3306,-0.3305,-0.332,-0.3307,-0.3307,-0.3307,-0.3307,-0.3307,-0.3345,-0.3341,-0.3338,-0.3334,-0.3332,-0.333,-0.3326,-0.3325,-0.3321,-0.3316,-0.3317,-0.3311,-0.3308,-0.3302,-0.33,-0.3296,-0.3297,-0.3296,-0.3295,-0.3294,-0.3294,-0.3307,-0.3295,-0.3295,-0.3295,-0.3295,-0.3295,0,-0.3332,-0.3331,-0.3327,-0.3323,-0.332,-0.3322,-0.3319,-0.3316,-0.3311,-0.3308,-0.3305,-0.3299,-0.3295,-0.3293,-0.3288,-0.3285,-0.3286,-0.3284,-0.3284,-0.3284,-0.3293,-0.3294,-0.3284,-0.3284,-0.3284,-0.3284,-0.3284,-0.3284,-0.3326,-0.332,-0.3319,-0.3312,-0.3311,-0.3306,-0.3304,-0.3302,-0.3299,-0.3293,-0.329,-0.3289,-0.3286,-0.3282,-0.3278,-0.3277,-0.3275,-0.3273,-0.3273,-0.3282,-0.3283,-0.3284,-0.3285,-0.3273,-0.3273,-0.3264,-0.3264,-0.3264]}]]